                ,  0.482,  0.579,  0.676,  0.773,  0.870,  0.967,  1.064,  1.161,  1.258,  1.354,  1.451,  1.548,  1.645,  1.742,  1.839,  1.936,  2.033,  2.130,  2.227,  2.324,  2.421,  2.518,  2.615,  2.712,  2.809,  2.906,  3.003,  3.099,  3.196,  3.293,  3.390,  3.487,  3.584,  3.681,  3.778,  3.875,  3.972,  4.069,  4.166,  4.263,  4.360,  4.457,  4.554,  4.651,  4.748,  4.844,  4.941,  5.038,  5.135,  5.232,  5.329,  5.426,  5.523,  5.620,  5.717,  5.814,  5.911,  6.008,  6.105,  6.202,  6.299,  6.396,  6.493,  6.589,  6.686,  6.783,  6.880,  6.977,  7.074,  7.171,  7.268,  7.365,  7.462,  7.559,  7.656,  7.753,  7.850,  7.947,  8.044,  8.141
2013/09/16 00:00,  999.0,  999.0,  -23.1,  -27.1,  -25.7,  -24.7,  999.0,  -24.0,  -25.8,  -28.2,  -28.6,  -30.1,  -28.8,  -26.0,  -24.5,  -23.9,  -23.0,  -22.2,  -20.4,  -17.1,  -16.1,  -19.2,  -19.9,  -17.6,  -17.3,  -16.9,  -15.6,  -15.9,  -14.4,  -14.6,  -12.1,  -12.8,  -12.6,  -11.1,   -9.7,  -10.5,   -8.4,  999.0,  999.0,  999.0,  999.0,  999.0,  999.0,  999.0,  999.0,  999.0,  999.0,  999.0,  999.0,  999.0,  999.0,  999.0,  999.0,  999.0,  999.0,  999.0,  999.0,  999.0,  999.0,  999.0,  999.0,  999.0,  999.0,  999.0,  999.0,  999.0,  999.0,   -6.1,   -6.1,   -5.6,   -5.1,   -4.5,   -3.8,   -3.4,   -2.4,   -2.5,   -2.2,   -1.7,   -1.5,   -1.3
2013/09/16 00:10,  999.0,  -20.0,  -21.6,  -22.9,  -24.9,  -23.8,  -26.6,  -28.1,  -26.1,  -26.9,  -27.8,  -26.9,  -26.4,  -25.5,  -24.9,  -23.8,  -22.9,  -22.2,  -21.3,  -20.0,  -18.4,  -17.3,  -16.5,  -15.0,  -13.7,  -13.5,  -12.2,  -12.9,  -11.8,  -12.8,  -11.9,  -11.8,   -9.1,   -8.5,   -8.3,   -8.0,   -7.3,   -8.0,   -9.2,   -7.8,  -10.0,   -9.7,   -7.9,   -9.0,   -8.7,  999.0,   -8.6,  999.0,  999.0,  999.0,  999.0,  999.0,  999.0,  999.0,  999.0,  999.0,  999.0,  999.0,  999.0,  999.0,  999.0,  999.0,  999.0,  999.0,  999.0,  999.0,  999.0,  999.0,  999.0,  999.0,   -3.2,   -2.4,   -2.3,   -1.3,   -0.6,   -0.1,    0.1,   -0.5,   -0.5,  999.0
2013/09/16 00:20,  -17.1,  -19.6,  -20.5,  -23.1,  -21.8,  -22.2,  -23.3,  -23.0,  -23.6,  -10.4,  -21.0,  -14.5,  -25.5,  -24.7,  -24.6,  -25.0,  -19.8,  -19.7,  -19.4,  -22.9,  -22.6,  -22.2,  -21.1,  -21.3,  -20.3,  -19.6,  -18.2,  -16.2,  -15.4,  -14.4,  -15.2,  -11.2,  -11.0,  -11.8,  -11.2,  -11.4,  -10.8,  -10.1,  -10.0,   -9.8,   -9.3,   -9.3,   -7.2,   -8.5,   -6.2,   -6.6,   -6.9,   -6.5,   -6.5,   -7.0,   -7.5,   -7.8,   -7.7,   -7.5,   -7.0,  999.0,  999.0,  999.0,  999.0,  999.0,  999.0,  999.0,  999.0,  999.0,  999.0,  999.0,  999.0,  999.0,  999.0,  999.0,  999.0,  999.0,  999.0,  999.0,  999.0,  999.0,  999.0,  999.0,  999.0,  999.0
2013/09/16 00:30,  999.0,  -19.8,  -20.0,  -21.7,   17.5,  999.0,  999.0,  -24.2,  -12.6,   10.1,    1.4,  -13.7,    1.6,   -3.7,   -2.6,   -5.1,   -5.0,    0.4,    0.7,   -8.5,   -7.7,   -6.4,    2.2,   -3.9,  -11.8,  -10.7,   -7.2,  -16.2,  -15.9,  -14.5,  -16.0,  -12.6,  -12.2,  -11.4,  -12.4,  -10.6,  -11.3,  -11.0,  -10.9,  -11.5,  -11.7,  -10.7,  -12.7,  -13.1,  -14.2,  999.0,  -10.7,   -8.1,   -8.3,   -7.4,   -6.9,   -6.6,   -6.6,   -7.0,   -6.5,   -4.6,   -5.7,   -5.5,   -4.4,   -4.1,   -4.0,   -4.1,  999.0,  999.0,  999.0,  999.0,  999.0,  999.0,   -2.2,   -2.0,   -1.8,   -1.7,   -1.5,   -1.5,   -1.5,   -0.8,    0.5,    1.2,    1.5,    1.7
2013/09/16 00:40,  -16.5,  -19.5,  -20.4,  -20.7,  -20.4,  -21.4,  -22.0,  -23.5,  -24.2,  -24.0,  -24.6,  -24.9,  -24.5,  -23.6,  -23.3,  -22.3,  -21.4,  -20.1,  -19.1,  -18.0,  -17.7,  -16.1,  -15.9,  -14.6,  -14.7,  -14.3,  -13.1,  -12.6,  -12.4,  -12.1,  -11.6,  -12.0,  -11.0,  -10.7,   -9.5,   -9.2,   -8.9,   -9.1,   -8.5,   -9.3,   -9.6,   -8.9,   -8.7,   -7.3,   -9.0,   -7.3,   -7.2,   -6.1,   -4.1,   -4.0,   -2.6,   -3.5,   -3.5,   -3.9,   -4.0,   -4.2,   -4.4,  999.0,   -3.9,   -3.5,  999.0,  999.0,   -2.1,  999.0,   -1.8,   -1.5,   -1.5,   -1.5,   -1.5,   -1.2,   -1.2,   -0.9,   -0.7,   -0.5,   -0.3,    0.7,    1.7,    2.1,    2.5,    2.1
2013/09/16 00:50,  999.0,  -21.3,  -20.8,  -21.8,  -22.1,  -21.6,  -22.2,  -22.3,  -23.2,  -23.5,  -22.3,  -21.4,  -22.0,  -21.1,  -20.9,  -20.4,  -20.3,  -18.8,  -19.2,  -18.0,  -17.4,  -15.3,  -15.7,  -15.0,  -14.0,  -14.2,  -13.8,  -13.0,  -12.8,  -13.2,  -12.4,  -13.3,  -12.7,  -10.6,  -10.7,   -9.4,   -9.6,  -10.0,   -9.9,  -10.2,   -9.8,   -9.1,   -9.2,   -7.8,   -9.2,   -8.1,   -8.2,   -8.6,   -8.5,   -8.2,   -8.3,   -7.2,   -6.2,   -5.9,   -6.1,   -4.9,   -4.1,   -4.5,   -3.8,   -3.5,   -1.7,   -1.6,   -0.9,   -0.9,   -1.0,   -0.3,   -1.2,   -1.3,   -1.2,   -0.7,   -0.3,    0.0,    0.3,    0.5,    1.0,    1.2,    1.1,    1.2,    0.8,    0.7
2013/09/16 01:00,  999.0,  999.0,  999.0,  -19.1,  999.0,  999.0,    5.5,   -2.0,    9.2,    3.6,    9.6,    4.3,    8.1,   16.9,   16.8,  999.0,   23.2,   23.6,   23.9,   24.0,    4.1,   13.7,   14.4,   15.6,   11.3,   11.8,  999.0,  999.0,    6.7,   -0.4,    7.5,    0.5,  999.0,  -10.5,  -10.0,  -11.2,  -10.8,    0.2,    0.8,    1.8,    2.0,   -8.3,   -7.0,   -6.4,   -7.7,   -7.2,   -8.4,   -8.1,   -8.9,   -6.7,   -6.2,   -6.2,   -6.6,   -6.7,   -5.5,   -5.8,   -5.7,   -6.0,   -6.4,   -7.0,   -7.1,   -6.7,   -5.8,   -6.4,   -4.7,   -4.1,   -2.8,   -3.8,   -3.1,   -2.9,   -3.6,   -3.9,   -4.3,   -4.3,   -3.8,   -4.2,   -4.6,   -4.3,   -4.6,   -4.6
2013/09/16 01:10,  999.0,  999.0,  999.0,  999.0,  999.0,  999.0,  999.0,   19.3,   20.1,   19.4,   20.2,   20.1,   21.8,   22.6,   22.5,   22.6,   22.0,   23.1,  999.0,   23.9,   23.9,   24.6,   24.7,   25.1,   25.0,   26.0,   25.6,   25.9,   26.1,   27.0,   27.3,   27.4,   27.2,   28.3,   26.6,   28.3,   29.1,  999.0,  999.0,  999.0,  999.0,  -12.2,  -11.1,  -11.9,  -10.2,  -10.5,  -10.4,   -9.4,   -9.9,   -9.5,   -9.1,   -9.6,   -9.3,   -8.9,   -8.3,   -8.7,   -8.5,   -8.5,   -8.7,   -8.5,   -8.0,   -7.8,   -7.7,   -7.5,   -7.5,   -7.3,   -7.4,   -7.7,   -7.6,   -7.1,   -6.8,   -6.8,   -6.7,   -6.5,   -6.3,   -6.2,   -5.0,   -4.3,   -4.2,   -4.4
2013/09/16 01:20,  -16.5,  999.0,  999.0,  999.0,  999.0,   18.0,   19.3,  999.0,   18.6,   19.3,   20.2,   19.8,   21.5,   20.1,   21.7,   21.7,   22.5,   24.3,   24.6,   24.8,   25.2,   26.2,   22.0,   22.4,   15.9,   21.3,   28.2,   26.3,   26.8,   26.9,   27.9,   17.7,  999.0,  999.0,  999.0,    7.9,  999.0,  999.0,  -12.0,  -11.8,  -11.0,  -11.6,  -13.3,  -11.0,   -9.5,  -10.2,  -10.2,  -10.2,  -11.1,  -11.1,  -10.7,  -10.5,  -10.4,  -10.4,  -10.3,  -10.7,  -10.9,  -11.0,  -11.2,  -11.2,  -11.0,  -10.9,  -10.7,  -10.5,  -10.5,  -10.5,  -10.4,  -10.4,  -10.2,  -10.0,  -10.1,   -9.9,   -9.7,   -9.7,   -9.6,   -9.5,   -9.2,   -9.1,   -9.0,   -8.2
2013/09/16 01:30,  -15.7,  -16.0,  -17.2,  -17.2,  -18.6,  999.0,  999.0,  999.0,   18.9,   18.7,   18.6,    9.1,    6.4,   15.6,   15.7,   16.7,   16.8,   15.9,   17.3,   23.9,    9.9,    3.9,    0.6,   -5.8,  -15.4,  -15.4,  -15.6,  -15.3,  -14.8,  -14.7,  -14.4,  -14.4,  -14.4,  -14.6,  -14.6,  -13.9,  -13.7,  -13.6,  -12.7,  -11.8,  -13.5,  -12.4,  -13.1,  -12.8,  -13.0,  -11.8,  -13.9,  -14.2,  -15.7,  -13.4,  -12.9,  -13.2,  -13.1,  -13.1,  -13.7,  -13.6,  -13.7,  -13.3,  -13.5,  -12.8,  -13.2,  -12.9,  -13.0,  -13.7,  -13.6,  -13.7,  -13.7,  -13.4,  -13.2,  -13.0,  -12.9,  -13.0,  -13.2,  -13.4,  -13.1,  -13.1,  -12.4,  -12.3,  -12.0,  -11.4
2013/09/16 01:40,   24.9,    4.0,   11.8,    7.6,    6.8,    7.4,   20.5,   22.0,   20.3,   19.4,   19.4,   19.6,   19.2,   20.0,   19.6,   20.5,   21.7,   21.0,   22.6,   23.4,   24.9,   25.2,   26.2,   27.0,   26.4,   27.9,   27.2,   27.8,   27.7,   28.9,   29.4,   -2.0,   -4.9,  -10.1,   -7.8,  -10.9,  -10.5,  -10.1,    9.3,   -3.8,   15.0,   27.9,    6.1,  -10.9,  -11.8,  -11.2,  -11.0,   -9.1,   -9.2,   -9.1,   -9.3,   -9.5,  -10.0,  -10.2,  -11.2,  -11.0,  -10.1,   -9.8,   -9.9,  -10.1,  -10.0,  -10.2,   -9.5,   -9.6,   -9.9,  -10.8,  -10.9,  -11.3,  -11.6,  -11.7,  -11.6,  -11.6,  -12.4,  -11.5,  -11.6,  -11.3,  -11.4,  -11.2,  -11.1,  -10.8
2013/09/16 01:50,   25.2,   24.8,  999.0,  999.0,   22.4,   19.5,   18.8,   16.7,   20.3,   20.6,   20.3,   20.6,   20.8,   21.3,   21.0,   22.1,   23.2,   25.1,   25.2,   26.0,   26.7,   27.7,   28.6,   29.1,   29.4,   30.0,   28.5,  999.0,  999.0,  999.0,  999.0,  999.0,  999.0,   -9.8,  -10.1,   -9.8,   -9.6,   -9.4,   -9.9,  999.0,  999.0,  999.0,  -10.5,  -12.2,  -10.8,  999.0,  999.0,  -11.4,  -11.4,  -11.4,  -11.0,  -10.1,   -9.8,   -9.5,   -9.7,   -9.4,   -9.1,   -9.0,   -8.7,   -8.4,   -8.1,   -7.9,   -7.7,   -7.5,   -7.3,   -7.2,   -7.0,   -6.9,   -6.7,   -6.7,   -6.9,   -6.9,   -7.0,   -7.1,   -7.1,   -7.0,   -6.8,   -6.4,   -6.2,   -6.2
2013/09/16 02:00,  -16.4,  -17.4,  -18.5,  -18.6,  -19.9,  -21.9,  -23.0,  -21.2,  -20.3,  -21.3,  -22.3,  999.0,   -8.2,    8.3,    1.1,  -21.9,  999.0,    9.7,   11.1,   12.4,   27.3,   -0.3,   -5.2,   -4.3,   -4.3,    5.3,   -5.6,   -5.0,  -15.7,  -14.7,  -14.6,  -13.9,  -13.1,  -12.7,  -11.6,  -11.6,  -12.3,  -11.7,  -10.6,  -10.0,  -10.1,   -9.6,   -8.0,   -8.3,   -9.9,  -10.0,   -9.8,   -9.9,   -9.9,  -10.0,  -10.0,  -10.2,  -10.9,  -10.7,  -10.9,  -10.7,  -10.8,  -10.6,  -10.2,  -10.0,   -9.7,   -9.8,   -9.7,   -9.9,  -10.0,  -10.0,   -9.8,   -9.6,   -9.6,   -9.5,   -9.4,   -9.9,   -9.8,   -9.6,   -9.5,   -9.3,   -9.4,   -9.4,   -9.3,   -9.2
2013/09/16 02:10,  -19.8,  -19.0,  -21.4,  -14.3,  -11.2,  -22.8,  -12.7,  -24.4,  -13.8,  -10.5,   -6.9,   -7.2,  -11.3,   -7.8,   -6.9,  -10.8,  -14.3,  -21.4,  -20.6,  -20.6,  -19.8,  -18.5,  -17.5,  -16.3,  -16.0,  -15.4,  -15.0,  -14.8,  -13.4,  -11.9,  -10.5,  -11.0,  -10.7,  -10.7,   -9.8,   -9.9,   -9.0,   -9.5,  -10.0,   -9.3,  -10.0,  -10.1,   -9.5,  -10.3,  -11.7,  -11.0,  -10.3,  -11.3,  -11.4,  -12.0,  -12.6,  -12.8,  -12.5,  -12.3,  -12.2,  -12.0,  -11.7,  -11.5,  -11.5,  -11.4,  -11.7,  -11.5,  -11.5,  -11.7,  -11.5,  -11.8,  -11.8,  -11.9,  -11.8,  -11.7,  -12.2,  -12.2,  -12.0,  -11.8,  -11.8,  -11.4,  -11.0,  -11.0,  -10.4,   -9.3
2013/09/16 02:20,   23.4,   21.9,   21.8,   20.2,   22.1,   20.4,   17.0,   17.3,   18.0,   18.6,   16.8,   17.9,   18.0,   19.7,   19.3,   20.2,   20.2,   20.9,   22.2,   22.7,   13.0,   15.4,    4.8,    4.7,    5.7,    6.7,    7.4,   -5.1,   -4.9,  -12.7,  -12.5,  -12.4,  -12.1,  -12.0,  -12.1,    8.3,    8.4,    8.6,   15.1,   15.4,    9.0,  999.0,  999.0,  -12.1,  -11.2,  -10.7,  999.0,  -14.5,  -11.4,  -13.1,  -13.2,  -12.7,  -13.1,  -13.7,  -13.5,  -13.1,  -12.5,  -12.3,  -12.0,  -11.6,  -11.3,  -10.7,  -10.3,  -10.1,   -9.5,   -9.6,   -9.3,   -9.5,   -9.5,   -9.5,   -9.0,   -8.8,   -8.6,   -9.1,   -8.1,   -8.3,   -8.7,   -8.5,   -8.7,   -9.0
2013/09/16 02:30,   22.7,   21.9,   20.8,   20.8,   20.6,   19.7,   19.5,   19.3,   18.4,   18.3,   17.9,   18.7,   20.8,   20.6,   20.3,   21.8,   21.9,   22.1,   23.0,   23.5,   24.6,   24.9,   25.4,   25.6,  999.0,   26.2,   13.6,    7.0,   -1.2,    8.1,    5.7,   -8.3,   -9.9,  -10.3,   -9.8,    9.8,    5.2,    9.7,   -9.1,   -9.4,   -8.9,  -12.3,  -11.4,  -11.7,  -12.6,  -13.1,  -13.2,  -12.8,  -12.0,  -11.7,  -12.2,  -12.4,  -12.0,  -11.8,  -11.6,  -11.2,  -10.8,  -10.5,  -10.0,   -9.9,  -10.1,  -10.0,   -9.8,   -9.5,   -9.2,   -8.9,   -8.7,   -8.6,   -8.3,   -8.4,   -8.4,   -8.4,   -8.1,   -7.8,   -7.7,   -7.4,   -7.2,   -7.3,   -7.4,   -7.6
2013/09/16 02:40,  999.0,  999.0,   20.5,  999.0,   19.9,   18.8,   17.3,   18.2,   16.8,   14.7,   16.6,   18.9,   19.2,   21.0,   21.5,   21.4,   22.7,  999.0,  999.0,  999.0,  999.0,  999.0,  -14.4,  -14.1,  -12.9,  -12.5,  -12.4,  -11.2,  -11.1,  -11.1,  -11.1,  -10.5,  -10.0,   -9.9,   -9.3,   -9.1,   -9.0,   -8.1,   -7.7,   -6.9,   -7.0,   -6.5,   -5.2,   -6.0,   -8.1,   -8.7,   -9.2,   -9.3,   -9.3,   -9.2,   -9.6,  -10.1,  -10.1,   -9.5,   -9.4,   -9.0,   -9.2,   -9.4,   -9.6,   -9.6,   -9.3,   -9.3,   -9.1,   -8.9,   -8.7,   -8.5,   -8.4,   -8.4,   -8.4,   -8.6,   -8.7,   -8.7,   -8.7,   -8.6,   -8.3,   -8.3,   -8.7,   -8.8,   -8.8,   -8.5
2013/09/16 02:50,   24.2,  999.0,  999.0,   21.2,   20.6,   21.1,   20.1,   19.5,   19.6,   20.5,   21.8,   23.1,   21.9,   23.6,   24.6,   24.6,   24.9,  999.0,  999.0,  999.0,  999.0,  999.0,  -14.4,  -12.5,  -12.9,  -12.1,  -12.2,  -12.2,  -11.7,  -11.4,  -10.5,  -10.3,  -10.4,  -10.2,   -9.8,   -9.0,   -8.8,   -8.2,   -7.9,   -8.5,   -7.9,   -8.6,   -8.4,   -9.4,   -7.6,   -7.6,   -8.1,  999.0,   -9.6,  -10.1,  -10.2,  -10.5,  -11.2,  -11.6,  -12.2,  -12.1,  -12.0,  -12.7,  -12.7,  -11.8,  -11.3,  -10.8,  -10.4,  -10.3,   -9.8,   -9.3,   -9.3,   -9.0,   -8.6,   -8.3,   -8.2,   -8.0,   -7.9,   -8.2,   -8.3,   -7.9,   -7.5,   -7.2,   -7.1,   -7.1
2013/09/16 03:00,   26.2,   24.4,   24.1,   23.4,   23.3,   22.0,   21.7,   20.9,   20.4,   20.2,   20.7,   21.3,   21.4,   21.5,   22.2,   22.9,   22.9,  999.0,  999.0,  999.0,  999.0,  -15.6,  -14.6,  -14.1,  -13.4,  -12.9,  -13.3,  -12.8,  -13.1,  -12.9,  -12.6,  -11.6,  -11.2,  -10.9,  -10.3,   -9.9,  -10.4,   -9.9,  -10.1,   -9.8,  -10.8,  -10.6,  -10.5,  -11.3,   -8.5,   -6.3,  999.0,  999.0,   -9.3,   -9.1,   -9.6,   -9.6,  -10.2,  -10.6,  -11.0,  -11.4,  -11.9,  -12.3,  -12.5,  -12.4,  -12.6,  -12.5,  -12.5,  -12.0,  -12.0,  -11.8,  -11.5,  -11.1,  -10.4,  -10.1,   -9.3,   -9.1,   -8.2,   -7.9,   -7.8,   -7.8,   -7.6,   -7.6,   -7.9,   -8.0
2013/09/16 03:10,  -17.9,  -19.8,    0.4,  -21.6,   -0.4,   -6.9,  -22.0,  -23.1,  999.0,  -23.9,  -11.1,  -23.5,   -8.6,   -8.9,    0.7,   -6.0,    1.2,   -4.8,    3.3,    3.8,    4.4,   -7.8,   -7.9,   -2.9,    1.3,   -1.8,   -4.5,  -17.0,  -16.0,  -16.9,  -16.9,  -17.3,  -16.9,  -15.6,  999.0,  999.0,  -14.7,  999.0,   -8.8,  -11.4,  -13.8,  -16.4,   -9.5,   -8.9,  -11.4,  999.0,   -9.8,   -7.3,   -8.0,   -8.1,   -8.9,   -8.5,   -8.3,   -9.0,   -9.6,  -10.3,  -11.1,  -11.5,  -12.1,  -12.9,  -12.8,  -12.7,  -12.4,  -11.9,  -10.9,  -10.6,  -10.5,  -10.8,  -10.5,  -10.3,  -10.0,   -9.6,   -9.3,   -8.7,   -8.7,   -8.0,   -7.8,   -7.5,   -7.3,   -6.9
2013/09/16 03:20,  -19.5,  -20.0,  -20.9,  -21.5,  -22.0,  -21.7,  -22.9,  -23.4,  -23.5,  -22.9,  -23.1,  -23.3,  -23.3,  -22.1,  -21.1,  -20.9,  -20.8,  -20.2,  -19.7,  -18.6,  -17.8,  -16.1,  -16.4,  -13.3,  -13.1,  -13.8,  -14.5,  -14.8,  -15.2,  -15.0,  -15.1,  -15.0,  -15.5,  -15.8,  -15.2,  -14.5,  -13.5,  -13.2,  -14.2,  -13.4,  -12.8,  -12.7,  -12.7,  -12.8,  -12.2,  -11.6,  -11.8,  -12.0,  -12.1,  -11.3,  -10.9,  -11.5,  -12.7,  -13.7,  -14.6,  -15.1,  -15.3,  -15.3,  -15.1,  -14.8,  -14.8,  -14.5,  -13.9,  -13.4,  -12.9,  -12.5,  -12.3,  -12.2,  -12.3,  -12.5,  -12.6,  -12.3,  -12.0,  -11.1,  -10.6,  -10.2,  -10.2,   -9.3,   -8.9,  999.0
2013/09/16 03:30,  -19.2,  -19.8,  -21.1,  -21.5,  -11.7,  -11.9,  -14.2,  -15.3,  -13.4,  -15.3,  -14.6,  -13.8,  -13.6,  -21.6,   -4.4,  -15.7,   -6.9,  -19.0,   -7.6,   -7.1,  -15.4,  -14.7,  -14.5,  -13.9,  -14.2,  -14.2,  -14.4,  -13.8,  -13.2,  -13.9,  -13.4,  -12.7,  -12.5,  -13.3,  -13.2,  -13.2,  -13.4,  -13.3,  -12.5,  -12.2,  -11.9,  -10.6,  -10.2,   -7.1,  -10.6,   -9.8,   -9.5,  -12.1,  -12.4,  -10.8,  -11.4,  -11.7,  -10.7,  -11.3,  -11.3,  -11.0,  -11.2,  -11.2,  -11.4,  -11.2,  -10.9,  -10.6,  -10.6,  -10.3,  -10.0,   -9.7,   -9.5,   -9.6,   -9.7,   -9.7,  -10.0,  -10.3,  -10.6,  -10.2,  -10.1,  -11.5,  -11.2,  -10.7,  -11.9,  -10.9
2013/09/16 03:40,  -18.1,  999.0,  -21.0,  -22.4,   -8.2,  -20.1,  999.0,  999.0,  999.0,   19.8,   20.3,   20.0,   20.9,   22.2,   22.5,   22.6,   23.4,   23.6,   22.9,   23.7,   23.9,   24.0,   24.1,   26.3,   16.0,   15.8,   16.2,   26.8,   13.8,    6.6,    5.7,   -4.8,   -8.7,   -8.8,   -8.4,   -6.6,   -4.8,   -6.3,   -6.2,  -13.7,  -12.6,  -12.2,  -12.9,  -12.8,  -11.4,   -9.4,  -10.7,  -11.6,  -11.1,   -9.7,   -9.5,   -9.6,   -9.1,   -9.4,   -9.1,   -9.1,   -9.3,   -8.9,   -8.6,   -8.8,   -8.6,   -8.2,   -8.0,   -7.9,   -7.9,   -7.2,   -7.3,   -7.5,   -7.9,   -7.8,   -7.9,   -8.0,   -8.0,   -8.3,   -8.5,   -8.2,   -8.1,   -8.4,   -8.4,   -8.8
2013/09/16 03:50,  -19.6,  -20.9,    0.0,    3.1,   -1.1,    8.0,    2.8,   15.7,   13.9,   20.9,   11.7,   19.8,   15.4,   14.5,   15.2,   18.3,   15.2,   22.1,   22.0,   25.4,   25.3,   26.0,   26.9,   27.1,   20.1,   19.6,   13.6,   17.3,   15.6,    7.6,   12.1,   12.3,    7.6,    7.5,    7.3,    7.3,    7.2,   10.2,    6.4,   26.5,   -0.6,  -12.1,  -13.1,  -12.4,  -12.6,  -11.8,  -12.5,  -12.3,  -13.6,  -12.4,   -9.9,  -10.4,   -9.2,   -9.9,  -10.0,  -12.8,  -10.9,  -12.0,  -12.2,  -11.2,  -11.8,  -11.5,  -11.1,  -11.1,  -11.0,  -11.8,  -10.7,  -11.1,  -11.8,  -11.2,  -11.0,  -11.0,  -11.2,  -11.7,  -11.8,  -11.7,  -12.1,  -12.7,  -12.6,  -12.2
2013/09/16 04:00,  999.0,  999.0,  999.0,    1.7,   12.8,    4.7,    4.2,    3.8,    0.1,   -3.8,    1.2,    1.5,    1.9,    2.2,    2.6,   -3.3,    2.4,    2.6,   -8.5,  -17.5,  -17.5,  -17.8,  -17.7,  -16.7,  -16.0,  -15.7,  -16.4,  -14.8,  -15.8,  -14.8,  -14.0,  -14.6,  -14.4,  -14.3,  -14.1,  -11.8,  -12.2,  -11.0,  -12.0,  -10.9,  -11.6,   -9.8,  -11.4,  -11.1,  -10.8,  -12.6,  -11.3,  -11.1,  -10.4,  -11.3,  -13.1,  -12.9,  -13.4,  -11.8,  -12.6,  -11.6,  -11.6,  -11.6,  -11.3,  -11.5,  -10.8,  -11.6,  -11.8,  -12.4,  -12.4,  -12.6,  -12.4,  -11.9,  -11.3,  -11.5,  -11.5,  -12.0,  -11.7,  -11.7,  -11.6,  -11.6,  -11.6,  -11.3,  -11.0,  -11.0
2013/09/16 04:10,  999.0,  999.0,  999.0,  999.0,  999.0,  -16.6,    1.3,   -6.8,  -12.8,  -18.2,  -13.6,  -15.6,  -23.0,   18.5,  -15.3,  -11.2,   -6.7,  -19.8,  -11.9,   -8.8,   -9.8,  -17.8,   -8.3,  -18.6,  -18.2,  -18.0,  -18.3,  -17.7,  -17.0,  -16.6,  -16.7,  -16.3,  -15.3,  -15.1,  -14.0,   -9.9,  -13.0,  -13.7,  -12.0,  -11.2,  -11.8,  999.0,  -10.0,  -10.9,   -9.6,  -10.5,  -12.9,  -11.8,  -11.2,  -11.7,   -9.5,  999.0,   -8.4,   -9.1,  999.0,   -6.7,  999.0,  999.0,  999.0,   -5.3,   -6.8,  999.0,   -6.6,   -6.9,   -7.1,   -6.1,   -7.2,   -6.6,   -6.8,   -6.6,   -6.1,   -6.8,   -7.1,   -7.3,   -6.7,   -6.9,   -7.6,   -7.5,   -7.4,   -7.5
2013/09/16 04:20,   -6.0,   -5.6,   -8.5,  999.0,  -14.1,  999.0,  999.0,  -18.1,   -7.1,  999.0,   11.2,    0.1,   20.5,   18.4,   19.5,   19.9,   19.3,   19.0,   15.1,   15.8,   12.9,    4.8,    7.6,   -4.5,   -4.4,   -7.1,  -13.7,   -5.5,  -19.2,  -18.3,  -18.1,  -18.5,  -12.3,  -13.2,  -16.5,  -15.7,  -15.0,  -15.6,  -13.7,  -16.6,  -15.3,  -17.4,  -15.1,  999.0,  -15.1,  -11.7,  -11.7,  -10.5,  999.0,   -9.3,   -8.6,   -8.2,   -8.4,   -8.3,   -8.1,   -8.0,   -7.4,   -7.5,   -8.0,   -7.4,   -6.8,   -7.1,   -7.2,   -7.4,   -7.9,   -7.9,   -7.7,   -7.8,   -7.9,   -7.7,   -7.3,   -7.0,   -7.5,   -7.4,   -6.4,   -6.5,   -6.4,   -6.5,   -6.6,   -5.7
2013/09/16 04:30,  999.0,  999.0,  999.0,  999.0,  999.0,  999.0,  999.0,  999.0,  -15.1,  999.0,  999.0,   12.5,   10.7,  999.0,   19.2,    6.5,   20.8,   20.7,   20.4,   20.3,    9.8,   21.3,   10.6,   21.9,  999.0,  999.0,  999.0,  999.0,  999.0,  -17.1,  -17.2,  -15.0,  999.0,  -15.2,  999.0,  999.0,  999.0,  999.0,  -14.3,  999.0,  -16.0,  999.0,  999.0,  999.0,  999.0,  999.0,  -10.1,  -11.0,  -11.6,  -11.2,  -10.9,  -10.5,  -10.6,   -9.5,  -10.4,  -10.5,  -10.6,   -9.6,  -10.6,  -10.4,  -10.0,   -9.7,   -9.5,   -9.5,   -9.5,   -9.6,   -9.2,   -8.8,   -8.4,   -7.9,   -7.4,   -7.3,   -6.7,   -6.5,   -6.1,   -6.1,   -6.0,   -6.3,   -6.3,   -6.1
2013/09/16 04:40,  999.0,   -3.7,   -7.2,  999.0,  999.0,  999.0,  999.0,  999.0,    4.4,  999.0,  -16.0,  999.0,  999.0,   24.9,    2.6,  999.0,  999.0,  999.0,  999.0,  999.0,   21.1,   21.5,   22.0,   22.5,   23.2,   23.9,   25.4,   25.7,   26.5,   27.0,   26.9,  999.0,  999.0,  -15.6,  -15.1,  999.0,  -16.3,   -6.6,   -0.3,  999.0,  999.0,  999.0,  999.0,  999.0,  999.0,  999.0,  -12.0,  -11.2,  -13.8,  -13.7,  -13.7,  -13.5,  -12.7,  -11.8,  -11.2,  -10.7,   -9.6,  -10.1,  -10.3,  -11.1,  -11.6,  -11.1,  -10.7,  -10.5,  -10.2,  -10.1,   -9.9,   -9.4,   -8.9,   -8.3,   -7.9,   -7.6,   -7.3,   -6.4,   -5.9,   -5.7,   -5.5,   -5.5,   -5.1,   -5.0
2013/09/16 04:50,   -4.1,   -5.8,   -7.1,  -10.7,  999.0,  -11.4,  999.0,    1.2,  999.0,   25.9,   10.7,    1.2,   23.3,   22.0,   21.5,    9.4,   20.0,   18.8,   19.3,   20.2,   20.1,   20.2,   20.6,   21.1,   20.7,   21.0,   21.1,   22.7,   -2.4,    3.4,  -16.1,   -5.0,   -3.6,   -4.0,   -7.9,   -1.9,    7.6,  999.0,  999.0,  999.0,  999.0,  999.0,   11.7,  999.0,  -14.1,  -11.8,  -12.5,   -9.2,  -10.7,  -12.2,  -12.4,  -11.1,  -11.4,   -8.5,  -10.2,  -10.7,  -12.6,  -11.3,  -11.2,  -11.3,  -10.8,  -10.3,  -10.5,  -11.0,  -11.8,  -11.5,  -11.0,  -10.2,   -9.7,  -10.2,  -10.2,   -9.9,  -10.0,   -9.3,   -8.9,   -8.7,   -8.9,   -8.8,   -9.0,   -9.2
2013/09/16 05:00,   -2.6,   -4.0,   -6.2,  -10.5,   -8.1,  -11.1,  -11.8,    5.7,    7.9,    7.1,   19.3,   24.2,   18.2,   23.2,   22.8,   22.8,   23.4,   21.8,   23.0,   22.9,   22.9,   22.4,   22.8,   22.9,   24.1,   24.1,   24.9,   25.1,   25.7,   26.1,   25.9,   26.1,   26.3,   26.5,   27.7,   28.5,   28.1,   27.0,   26.7,   28.6,   28.8,   29.0,   30.9,  999.0,   -3.6,  -11.5,  -12.5,  -11.2,  -11.5,  -12.1,  -10.3,   -9.1,   -8.4,   -9.9,   -9.8,   -9.8,   -9.6,   -9.9,   -9.1,   -9.8,  -10.5,  -12.5,  -11.6,  -12.3,  -11.3,  -11.5,  -12.2,  -11.8,  -12.3,  -11.5,  -11.2,  -12.3,  -11.1,  -10.8,  -10.7,  -11.6,  -12.2,  -11.6,  -13.1,   -8.9
2013/09/16 05:10,  999.0,   -4.7,   -6.1,   -6.9,   -9.2,   -9.4,  -11.6,  -11.9,  -12.6,  -12.5,  999.0,  999.0,  999.0,   23.9,   23.4,   22.9,   22.4,   22.1,   21.3,   21.9,   22.4,   22.9,   22.3,   24.7,   24.9,   24.9,   -0.1,   -6.6,   -5.4,  -14.1,  -13.6,  -13.7,  -13.2,  -13.5,  -13.1,  -14.7,    1.0,   -0.9,   -5.5,   -1.8,  999.0,   22.8,   22.3,  999.0,  999.0,  -15.5,  -14.0,  -13.1,  -12.9,  -13.0,  -12.2,  -12.6,  -12.2,  -11.5,  -11.2,  -10.4,  -10.2,  -10.2,  -10.2,  -10.5,  -10.4,   -9.9,   -9.6,   -9.2,   -8.5,   -8.7,   -8.9,   -8.6,   -8.5,   -8.4,   -7.8,   -7.7,   -7.5,   -7.3,   -7.3,   -7.4,   -7.7,   -7.6,   -7.8,   -8.1
2013/09/16 05:20,    0.9,    1.0,   -1.6,   -2.2,   -4.6,   -5.1,   -6.7,   -9.9,   -6.3,  -11.1,  -13.1,  999.0,  999.0,  999.0,   -0.6,   16.3,   11.7,   15.7,   14.4,   24.0,   24.5,   25.5,   24.2,   23.2,   23.3,  -16.0,  -14.6,  -15.3,  -15.2,  -13.6,  -13.2,  -11.5,  -11.5,  -12.2,  -10.8,  -11.7,  -12.7,  -13.2,  -12.5,  999.0,  999.0,  999.0,   31.6,  999.0,  999.0,  -11.0,  -11.6,  -11.9,  -11.5,  -11.4,  -10.9,  -10.6,  -10.6,  -11.0,  -10.7,  -10.8,  -11.0,  -11.5,  -11.9,  -12.1,  -12.0,  -11.8,  -11.5,  -11.1,  -10.7,  -10.4,   -9.9,   -9.3,   -8.9,   -8.7,   -8.3,   -8.1,   -8.7,   -8.5,   -7.8,   -7.6,   -7.5,   -6.1,   -6.1,   -6.2
2013/09/16 05:30,   -0.4,   -2.0,   -3.6,   -5.3,   -6.4,   -9.3,   -8.8,  -10.6,  -11.8,  -11.4,  -11.8,  -13.6,  -14.4,  999.0,  999.0,  -16.4,  -17.0,  -19.6,  -18.8,  -18.1,  -19.1,  -19.3,  -18.3,  -17.8,  -16.9,  -15.1,  -15.3,  -14.4,  -12.7,  -11.3,  -10.9,  -10.9,  -10.4,  -10.4,   -9.7,   -9.6,  -10.1,  -11.7,  -11.6,  -11.7,  -11.5,  -10.9,  -11.2,  -10.5,  -11.3,  -11.9,  -11.8,  -10.6,  999.0,  999.0,  -14.4,  -13.8,  -13.8,  -13.8,  -13.6,  -13.3,  -13.1,  -13.1,  -13.2,  -13.0,  -12.9,  -12.6,  -12.3,  -11.9,  -11.7,  -11.6,  -11.9,  -12.2,  -12.1,  -12.1,  -11.9,  -11.9,  -12.1,  -11.9,  -11.7,  -11.7,  999.0,  999.0,   -9.9,   -9.9
2013/09/16 05:40,    1.4,  999.0,    0.7,  999.0,   -2.5,   -5.7,   -7.1,   -7.8,   -8.9,   -9.4,   -9.9,  -12.4,  -13.0,  -15.9,  -16.0,  -16.0,  -15.1,  -17.2,  -20.4,  -21.9,  -21.1,  -21.5,  -21.3,  -21.6,  -21.4,  -20.2,  -18.8,  -17.7,  -16.7,  -16.1,  -15.2,  -14.5,  -13.6,  -13.0,  -13.0,  -12.1,  -11.2,  -10.6,  -10.1,   -9.8,   -7.6,   -9.5,  -10.2,   -9.9,  -11.0,  999.0,   -7.6,   -7.0,   -8.3,   -9.9,   -9.8,  -10.4,  -10.6,  -10.7,  -10.9,  -11.2,  -11.5,  -11.9,  -12.0,  -12.0,  -11.9,  -11.7,  -11.6,  -11.6,  -11.6,  -11.6,  -11.3,  -11.3,  -11.6,  -11.8,  -12.0,  -11.9,  -11.5,  -11.3,  -10.9,  -10.6,   -9.9,   -9.2,   -8.5,   -8.1
2013/09/16 05:50,    2.4,    1.9,    1.0,    1.5,    0.1,   -3.0,   -4.6,   -5.9,   -7.4,   -9.9,  -10.7,  -12.1,  -12.4,  -13.4,  -15.5,  -15.6,  -16.2,  -16.3,  -16.5,   -6.5,    3.3,    7.3,   -0.4,    0.1,    2.6,  -18.8,   -6.3,   -7.7,   -4.1,    1.0,   -2.9,   -1.6,   -1.7,   -9.1,   -8.7,   -9.1,   -9.3,   -8.3,   -7.9,   -4.4,   -8.1,   -8.4,   -9.7,   -9.4,   -8.6,   -8.5,   -9.3,   -8.8,   -9.6,   -9.1,   -8.7,   -9.0,   -9.4,   -9.6,   -9.7,   -9.9,   -9.7,   -9.7,   -9.3,   -9.1,   -8.7,   -8.3,   -7.9,   -7.8,   -8.0,   -8.2,   -8.3,   -8.5,   -9.5,   -9.7,  -10.2,  -10.2,   -9.7,  -10.0,  -10.2,  -10.5,  -10.8,  -10.6,  -11.0,  -11.0
2013/09/16 06:00,  999.0,  999.0,  999.0,    3.1,    1.3,   -0.4,   -2.2,   -4.4,   -5.8,   -6.6,   -8.2,  -10.0,   -9.5,  -11.6,  -12.3,  -13.2,  -14.4,  -15.1,  -17.8,  -18.1,  -17.0,  999.0,   13.9,   16.0,   13.7,   13.7,   14.4,   14.7,  -16.0,  -15.7,  -15.5,  999.0,  -15.0,  -14.7,  -14.3,  -13.5,  -13.1,  -14.4,  -12.1,  -12.3,  -11.7,  -11.0,  -10.8,  -10.6,   -9.1,   -9.6,  999.0,   -9.4,   -9.1,   -9.9,  -10.2,  -10.6,  -10.3,  -10.0,   -9.0,   -9.3,   -9.5,   -9.6,   -9.5,   -9.3,   -9.2,   -9.7,   -9.7,   -8.4,   -8.6,   -8.2,   -7.8,   -8.2,   -8.7,   -8.3,   -8.6,   -8.8,   -8.8,   -8.9,   -9.1,   -9.3,   -9.6,   -9.8,  -10.1,  -10.3
